Year,Month,Day,Hour,Minute,Value (Times are PST for temperature in C)
2011,07,25,00,00,16.80
2011,07,25,00,01,16.80
2011,07,25,00,02,16.70
2011,07,25,00,03,16.70
2011,07,25,00,04,16.60
2011,07,25,00,05,16.60
2011,07,25,00,06,16.50
2011,07,25,00,07,16.50
2011,07,25,00,08,16.50
2011,07,25,00,09,16.40
2011,07,25,00,10,16.40
2011,07,25,00,11,16.40
2011,07,25,00,12,16.40
2011,07,25,00,13,16.40
2011,07,25,00,14,16.30
2011,07,25,00,15,16.30
2011,07,25,00,16,16.30
2011,07,25,00,17,16.30
2011,07,25,00,18,16.30
2011,07,25,00,19,16.30
2011,07,25,00,20,16.20
2011,07,25,00,21,16.20
2011,07,25,00,22,16.20
2011,07,25,00,23,16.20
2011,07,25,00,24,16.20
2011,07,25,00,25,16.10
2011,07,25,00,26,16.10
2011,07,25,00,27,16.10
2011,07,25,00,28,16.10
2011,07,25,00,29,16.00
2011,07,25,00,30,16.00
2011,07,25,00,31,15.90
2011,07,25,00,32,15.90
2011,07,25,00,33,15.90
2011,07,25,00,34,15.90
2011,07,25,00,35,15.80
2011,07,25,00,36,15.80
2011,07,25,00,37,15.70
2011,07,25,00,38,15.70
2011,07,25,00,39,15.70
2011,07,25,00,40,15.70
2011,07,25,00,41,15.60
2011,07,25,00,42,15.60
2011,07,25,00,43,15.60
2011,07,25,00,44,15.60
2011,07,25,00,45,15.60
2011,07,25,00,46,15.60
2011,07,25,00,47,15.60
2011,07,25,00,48,15.60
2011,07,25,00,49,15.60
2011,07,25,00,50,15.50
2011,07,25,00,51,15.50
2011,07,25,00,52,15.50
2011,07,25,00,53,15.50
2011,07,25,00,54,15.40
2011,07,25,00,55,15.40
2011,07,25,00,56,15.40
2011,07,25,00,57,15.40
2011,07,25,00,58,15.40
2011,07,25,00,59,15.30
2011,07,25,01,00,15.30
2011,07,25,01,01,15.30
2011,07,25,01,02,15.30
2011,07,25,01,03,15.20
2011,07,25,01,04,15.20
2011,07,25,01,05,15.10
2011,07,25,01,06,15.00
2011,07,25,01,07,15.00
2011,07,25,01,08,15.00
2011,07,25,01,09,15.00
2011,07,25,01,10,15.00
2011,07,25,01,11,15.00
2011,07,25,01,12,15.00
2011,07,25,01,13,15.00
2011,07,25,01,14,15.00
2011,07,25,01,15,15.00
2011,07,25,01,16,15.00
2011,07,25,01,17,15.00
2011,07,25,01,18,15.00
2011,07,25,01,19,15.00
2011,07,25,01,20,15.00
2011,07,25,01,21,15.00
2011,07,25,01,22,15.00
2011,07,25,01,23,15.00
2011,07,25,01,24,15.00
2011,07,25,01,25,15.00
2011,07,25,01,26,15.00
2011,07,25,01,27,15.00
2011,07,25,01,28,15.00
2011,07,25,01,29,15.00
2011,07,25,01,30,15.00
2011,07,25,01,31,15.00
2011,07,25,01,32,14.90
2011,07,25,01,33,14.90
2011,07,25,01,34,14.90
2011,07,25,01,35,14.90
2011,07,25,01,36,14.90
2011,07,25,01,37,14.90
2011,07,25,01,38,14.90
2011,07,25,01,39,14.90
2011,07,25,01,40,14.90
2011,07,25,01,41,14.90
2011,07,25,01,42,14.90
2011,07,25,01,43,14.90
2011,07,25,01,44,14.90
2011,07,25,01,45,14.80
2011,07,25,01,46,14.80
2011,07,25,01,47,14.80
2011,07,25,01,48,14.80
2011,07,25,01,49,14.80
2011,07,25,01,50,14.80
2011,07,25,01,51,14.80
2011,07,25,01,52,14.80
2011,07,25,01,53,14.80
2011,07,25,01,54,14.80
2011,07,25,01,55,14.80
2011,07,25,01,56,14.80
2011,07,25,01,57,14.80
2011,07,25,01,58,14.80
2011,07,25,01,59,14.80
2011,07,25,02,00,14.80
2011,07,25,02,01,14.80
2011,07,25,02,02,14.80
2011,07,25,02,03,14.80
2011,07,25,02,04,14.70
2011,07,25,02,05,14.70
2011,07,25,02,06,14.70
2011,07,25,02,07,14.70
2011,07,25,02,08,14.70
2011,07,25,02,09,14.60
2011,07,25,02,10,14.60
2011,07,25,02,11,14.60
2011,07,25,02,12,14.50
2011,07,25,02,13,14.50
2011,07,25,02,14,14.50
2011,07,25,02,15,14.40
2011,07,25,02,16,14.40
2011,07,25,02,17,14.40
2011,07,25,02,18,14.40
2011,07,25,02,19,14.40
2011,07,25,02,20,14.30
2011,07,25,02,21,14.30
2011,07,25,02,22,14.30
2011,07,25,02,23,14.30
2011,07,25,02,24,14.30
2011,07,25,02,25,14.30
2011,07,25,02,26,14.30
2011,07,25,02,27,14.30
2011,07,25,02,28,14.30
2011,07,25,02,29,14.30
2011,07,25,02,30,14.30
2011,07,25,02,31,14.30
2011,07,25,02,32,14.30
2011,07,25,02,33,14.30
2011,07,25,02,34,14.40
2011,07,25,02,35,14.40
2011,07,25,02,36,14.40
2011,07,25,02,37,14.40
2011,07,25,02,38,14.40
2011,07,25,02,39,14.30
2011,07,25,02,40,14.40
2011,07,25,02,41,14.40
2011,07,25,02,42,14.40
2011,07,25,02,43,14.40
2011,07,25,02,44,14.40
2011,07,25,02,45,14.40
2011,07,25,02,46,14.40
2011,07,25,02,47,14.40
2011,07,25,02,48,14.40
2011,07,25,02,49,14.40
2011,07,25,02,50,14.40
2011,07,25,02,51,14.40
2011,07,25,02,52,14.40
2011,07,25,02,53,14.40
2011,07,25,02,54,14.40
2011,07,25,02,55,14.50
2011,07,25,02,56,14.50
2011,07,25,02,57,14.50
2011,07,25,02,58,14.50
2011,07,25,02,59,14.50
2011,07,25,03,00,14.50
2011,07,25,03,01,14.50
2011,07,25,03,02,14.50
2011,07,25,03,03,14.50
2011,07,25,03,06,14.60
2011,07,25,03,07,14.60
2011,07,25,03,08,14.60
2011,07,25,03,09,14.70
2011,07,25,03,10,14.70
2011,07,25,03,11,14.70
2011,07,25,03,12,14.70
2011,07,25,03,13,14.70
2011,07,25,03,14,14.70
2011,07,25,03,15,14.70
2011,07,25,03,16,14.70
2011,07,25,03,17,14.80
2011,07,25,03,18,14.80
2011,07,25,03,19,14.80
2011,07,25,03,20,14.80
2011,07,25,03,21,14.90
2011,07,25,03,22,14.90
2011,07,25,03,23,15.00
2011,07,25,03,24,15.00
2011,07,25,03,25,15.00
2011,07,25,03,26,15.00
2011,07,25,03,27,15.00
2011,07,25,03,28,15.00
2011,07,25,03,29,15.10
2011,07,25,03,30,15.20
2011,07,25,03,31,15.20
2011,07,25,03,32,15.30
2011,07,25,03,33,15.30
2011,07,25,03,34,15.30
2011,07,25,03,35,15.30
2011,07,25,03,36,15.30
2011,07,25,03,37,15.30
2011,07,25,03,38,15.30
2011,07,25,03,39,15.30
2011,07,25,03,40,15.30
2011,07,25,03,41,15.30
2011,07,25,03,42,15.30
2011,07,25,03,43,15.30
2011,07,25,03,44,15.30
2011,07,25,03,45,15.20
2011,07,25,03,46,15.20
2011,07,25,03,47,15.20
2011,07,25,03,48,15.20
2011,07,25,03,49,15.20
2011,07,25,03,50,15.20
2011,07,25,03,51,15.20
2011,07,25,03,52,15.10
2011,07,25,03,53,15.10
2011,07,25,03,54,15.20
2011,07,25,03,55,15.20
2011,07,25,03,56,15.20
2011,07,25,03,57,15.20
2011,07,25,03,58,15.20
2011,07,25,03,59,15.20
2011,07,25,04,00,15.20
2011,07,25,04,01,15.30
2011,07,25,04,02,15.30
2011,07,25,04,03,15.30
2011,07,25,04,04,15.30
2011,07,25,04,05,15.30
2011,07,25,04,06,15.30
2011,07,25,04,07,15.30
2011,07,25,04,08,15.40
2011,07,25,04,09,15.40
2011,07,25,04,10,15.40
2011,07,25,04,11,15.40
2011,07,25,04,12,15.50
2011,07,25,04,13,15.50
2011,07,25,04,14,15.50
2011,07,25,04,15,15.60
2011,07,25,04,16,15.60
2011,07,25,04,17,15.60
2011,07,25,04,18,15.60
2011,07,25,04,19,15.60
2011,07,25,04,20,15.60
2011,07,25,04,21,15.60
2011,07,25,04,22,15.60
2011,07,25,04,23,15.60
2011,07,25,04,24,15.60
2011,07,25,04,25,15.70
2011,07,25,04,26,15.70
2011,07,25,04,27,15.70
2011,07,25,04,28,15.70
2011,07,25,04,29,15.80
2011,07,25,04,30,15.80
2011,07,25,04,31,15.80
2011,07,25,04,32,15.90
2011,07,25,04,33,15.90
2011,07,25,04,34,15.90
2011,07,25,04,35,15.90
2011,07,25,04,36,16.00
2011,07,25,04,37,16.00
2011,07,25,04,38,16.00
2011,07,25,04,39,16.00
2011,07,25,04,40,16.10
2011,07,25,04,41,16.10
2011,07,25,04,42,16.10
2011,07,25,04,43,16.10
2011,07,25,04,44,16.10
2011,07,25,04,45,16.20
2011,07,25,04,46,16.20
2011,07,25,04,47,16.20
2011,07,25,04,48,16.20
2011,07,25,04,49,16.20
2011,07,25,04,50,16.30
2011,07,25,04,51,16.30
2011,07,25,04,52,16.30
2011,07,25,04,53,16.30
2011,07,25,04,54,16.30
2011,07,25,04,55,16.30
2011,07,25,04,56,16.30
2011,07,25,04,57,16.30
2011,07,25,04,58,16.30
2011,07,25,04,59,16.30
2011,07,25,05,00,16.30
2011,07,25,05,01,16.30
2011,07,25,05,02,16.30
2011,07,25,05,03,16.30
2011,07,25,05,04,16.30
2011,07,25,05,05,16.30
2011,07,25,05,06,16.30
2011,07,25,05,07,16.30
2011,07,25,05,08,16.30
2011,07,25,05,09,16.30
2011,07,25,05,10,16.30
2011,07,25,05,11,16.30
2011,07,25,05,12,16.40
2011,07,25,05,13,16.40
2011,07,25,05,14,16.40
2011,07,25,05,15,16.40
2011,07,25,05,16,16.40
2011,07,25,05,17,16.40
2011,07,25,05,18,16.40
2011,07,25,05,19,16.40
2011,07,25,05,20,16.40
2011,07,25,05,21,16.40
2011,07,25,05,22,16.40
2011,07,25,05,23,16.40
2011,07,25,05,24,16.40
2011,07,25,05,25,16.40
2011,07,25,05,26,16.40
2011,07,25,05,27,16.40
2011,07,25,05,28,16.40
2011,07,25,05,29,16.40
2011,07,25,05,30,16.50
2011,07,25,05,31,16.50
2011,07,25,05,32,16.50
2011,07,25,05,33,16.50
2011,07,25,05,34,16.50
2011,07,25,05,35,16.50
2011,07,25,05,36,16.50
2011,07,25,05,37,16.50
2011,07,25,05,38,16.50
2011,07,25,05,39,16.50
2011,07,25,05,40,16.50
2011,07,25,05,41,16.50
2011,07,25,05,42,16.50
2011,07,25,05,43,16.50
2011,07,25,05,44,16.50
2011,07,25,05,45,16.40
2011,07,25,05,46,16.40
2011,07,25,05,47,16.40
2011,07,25,05,48,16.40
2011,07,25,05,49,16.40
2011,07,25,05,50,16.40
2011,07,25,05,51,16.40
2011,07,25,05,52,16.30
2011,07,25,05,53,16.30
2011,07,25,05,54,16.30
2011,07,25,05,55,16.30
2011,07,25,05,56,16.30
2011,07,25,05,57,16.30
2011,07,25,05,58,16.30
2011,07,25,05,59,16.30
2011,07,25,06,00,16.30
2011,07,25,06,01,16.40
2011,07,25,06,02,16.40
2011,07,25,06,03,16.40
2011,07,25,06,04,16.40
2011,07,25,06,05,16.40
2011,07,25,06,06,16.40
2011,07,25,06,07,16.40
2011,07,25,06,08,16.40
2011,07,25,06,09,16.40
2011,07,25,06,10,16.50
2011,07,25,06,11,16.50
2011,07,25,06,12,16.50
2011,07,25,06,13,16.50
2011,07,25,06,14,16.60
2011,07,25,06,15,16.60
2011,07,25,06,16,16.60
2011,07,25,06,17,16.60
2011,07,25,06,18,16.70
2011,07,25,06,19,16.70
2011,07,25,06,20,16.70
2011,07,25,06,21,16.70
2011,07,25,06,22,16.70
2011,07,25,06,23,16.70
2011,07,25,06,24,16.70
2011,07,25,06,25,16.70
2011,07,25,06,26,16.70
2011,07,25,06,27,16.70
2011,07,25,06,28,16.70
2011,07,25,06,29,16.70
2011,07,25,06,30,16.70
2011,07,25,06,31,16.70
2011,07,25,06,32,16.70
2011,07,25,06,33,16.70
2011,07,25,06,34,16.70
2011,07,25,06,35,16.80
2011,07,25,06,36,16.80
2011,07,25,06,37,16.80
2011,07,25,06,38,16.80
2011,07,25,06,39,16.80
2011,07,25,06,40,16.80
2011,07,25,06,41,16.80
2011,07,25,06,42,16.80
2011,07,25,06,43,16.80
2011,07,25,06,44,16.80
2011,07,25,06,45,16.80
2011,07,25,06,46,16.80
2011,07,25,06,47,16.80
2011,07,25,06,48,16.80
2011,07,25,06,49,16.80
2011,07,25,06,50,16.90
2011,07,25,06,51,16.90
2011,07,25,06,52,16.90
2011,07,25,06,53,17.00
2011,07,25,06,54,17.00
2011,07,25,06,55,17.00
2011,07,25,06,56,17.00
2011,07,25,06,57,17.10
2011,07,25,06,58,17.10
2011,07,25,06,59,17.10
2011,07,25,07,00,17.10
2011,07,25,07,01,17.10
2011,07,25,07,02,17.10
2011,07,25,07,03,17.10
2011,07,25,07,04,17.10
2011,07,25,07,05,17.10
2011,07,25,07,06,17.10
2011,07,25,07,07,17.10
2011,07,25,07,08,17.10
2011,07,25,07,09,17.10
2011,07,25,07,10,17.10
2011,07,25,07,11,17.10
2011,07,25,07,12,17.10
2011,07,25,07,13,17.10
2011,07,25,07,14,17.10
2011,07,25,07,15,17.10
2011,07,25,07,16,17.10
2011,07,25,07,17,17.10
2011,07,25,07,18,17.10
2011,07,25,07,19,17.00
2011,07,25,07,20,17.00
2011,07,25,07,21,17.00
2011,07,25,07,22,17.00
2011,07,25,07,23,17.00
2011,07,25,07,24,16.90
2011,07,25,07,25,16.90
2011,07,25,07,26,16.90
2011,07,25,07,27,16.90
2011,07,25,07,28,16.90
2011,07,25,07,29,16.90
2011,07,25,07,30,16.90
2011,07,25,07,31,16.90
2011,07,25,07,32,16.90
2011,07,25,07,33,16.90
2011,07,25,07,34,16.90
2011,07,25,07,35,16.90
2011,07,25,07,36,16.90
2011,07,25,07,37,16.90
2011,07,25,07,38,16.90
2011,07,25,07,39,16.90
2011,07,25,07,40,17.00
2011,07,25,07,41,17.00
2011,07,25,07,42,17.00
2011,07,25,07,43,17.10
2011,07,25,07,44,17.10
2011,07,25,07,45,17.10
2011,07,25,07,46,17.10
2011,07,25,07,47,17.10
2011,07,25,07,48,17.10
2011,07,25,07,49,17.10
2011,07,25,07,50,17.10
2011,07,25,07,51,17.20
2011,07,25,07,52,17.20
2011,07,25,07,53,17.20
2011,07,25,07,54,17.20
2011,07,25,07,55,17.20
2011,07,25,07,56,17.30
2011,07,25,07,57,17.30
2011,07,25,07,58,17.30
2011,07,25,07,59,17.40
2011,07,25,08,00,17.40
2011,07,25,08,01,17.50
2011,07,25,08,02,17.60
2011,07,25,08,03,17.70
2011,07,25,08,04,17.70
2011,07,25,08,05,17.80
2011,07,25,08,06,17.90
2011,07,25,08,07,17.90
2011,07,25,08,08,18.00
2011,07,25,08,09,18.00
2011,07,25,08,10,18.10
2011,07,25,08,11,18.10
2011,07,25,08,12,18.20
2011,07,25,08,13,18.20
2011,07,25,08,14,18.30
2011,07,25,08,15,18.30
2011,07,25,08,16,18.40
2011,07,25,08,17,18.40
2011,07,25,08,18,18.50
2011,07,25,08,19,18.60
2011,07,25,08,20,18.70
2011,07,25,08,21,18.80
2011,07,25,08,22,18.90
2011,07,25,08,23,19.00
2011,07,25,08,24,19.00
2011,07,25,08,25,19.10
2011,07,25,08,26,19.20
2011,07,25,08,27,19.30
2011,07,25,08,28,19.40
2011,07,25,08,29,19.50
2011,07,25,08,30,19.60
2011,07,25,08,31,19.60
2011,07,25,08,32,19.70
2011,07,25,08,33,19.70
2011,07,25,08,34,19.70
2011,07,25,08,35,19.80
2011,07,25,08,36,19.80
2011,07,25,08,37,19.90
2011,07,25,08,38,20.00
2011,07,25,08,39,20.00
2011,07,25,08,40,20.10
2011,07,25,08,41,20.10
2011,07,25,08,42,20.20
2011,07,25,08,43,20.20
2011,07,25,08,44,20.20
2011,07,25,08,45,20.20
2011,07,25,08,46,20.20
2011,07,25,08,47,20.30
2011,07,25,08,48,20.30
2011,07,25,08,49,20.30
2011,07,25,08,50,20.40
2011,07,25,08,51,20.40
2011,07,25,08,52,20.50
2011,07,25,08,53,20.60
2011,07,25,08,54,20.60
2011,07,25,08,55,20.70
2011,07,25,08,56,20.70
2011,07,25,08,57,20.80
2011,07,25,08,58,20.80
2011,07,25,08,59,20.80
2011,07,25,09,00,20.90
2011,07,25,09,01,20.90
2011,07,25,09,02,21.00
2011,07,25,09,03,21.00
2011,07,25,09,04,21.10
2011,07,25,09,05,21.10
2011,07,25,09,06,21.20
2011,07,25,09,07,21.10
2011,07,25,09,08,21.10
2011,07,25,09,09,21.10
2011,07,25,09,10,21.00
2011,07,25,09,11,21.00
2011,07,25,09,12,21.00
2011,07,25,09,13,20.90
2011,07,25,09,14,20.90
2011,07,25,09,15,20.90
2011,07,25,09,16,20.90
2011,07,25,09,17,20.90
2011,07,25,09,18,20.80
2011,07,25,09,19,20.80
2011,07,25,09,20,20.80
2011,07,25,09,21,20.70
2011,07,25,09,22,20.70
2011,07,25,09,23,20.70
2011,07,25,09,24,20.70
2011,07,25,09,25,20.60
2011,07,25,09,26,20.60
2011,07,25,09,27,20.50
2011,07,25,09,28,20.50
2011,07,25,09,29,20.40
2011,07,25,09,30,20.40
2011,07,25,09,31,20.40
2011,07,25,09,32,20.40
2011,07,25,09,33,20.30
2011,07,25,09,34,20.30
2011,07,25,09,35,20.30
2011,07,25,09,36,20.30
2011,07,25,09,37,20.30
2011,07,25,09,38,20.30
2011,07,25,09,39,20.40
2011,07,25,09,40,20.40
2011,07,25,09,41,20.40
2011,07,25,09,42,20.50
2011,07,25,09,43,20.60
2011,07,25,09,44,20.60
2011,07,25,09,45,20.60
2011,07,25,09,46,20.60
2011,07,25,09,47,20.60
2011,07,25,09,48,20.60
2011,07,25,09,49,20.60
2011,07,25,09,50,20.60
2011,07,25,09,51,20.60
2011,07,25,09,52,20.60
2011,07,25,09,53,20.70
2011,07,25,09,54,20.70
2011,07,25,09,55,20.70
2011,07,25,09,56,20.60
2011,07,25,09,57,20.50
2011,07,25,09,58,20.40
2011,07,25,09,59,20.40
2011,07,25,10,00,20.40
2011,07,25,10,01,20.30
2011,07,25,10,02,20.40
2011,07,25,10,03,20.40
2011,07,25,10,04,20.40
2011,07,25,10,05,20.50
2011,07,25,10,06,20.50
2011,07,25,10,07,20.50
2011,07,25,10,08,20.40
2011,07,25,10,09,20.40
2011,07,25,10,10,20.40
2011,07,25,10,11,20.40
2011,07,25,10,12,20.50
2011,07,25,10,13,20.60
2011,07,25,10,14,20.70
2011,07,25,10,15,20.70
2011,07,25,10,16,20.80
2011,07,25,10,17,20.80
2011,07,25,10,18,20.80
2011,07,25,10,19,20.80
2011,07,25,10,20,20.80
2011,07,25,10,21,20.80
2011,07,25,10,22,20.80
2011,07,25,10,23,20.80
2011,07,25,10,24,20.90
2011,07,25,10,25,20.90
2011,07,25,10,26,21.00
2011,07,25,10,27,21.10
2011,07,25,10,28,21.10
2011,07,25,10,29,21.20
2011,07,25,10,30,21.20
2011,07,25,10,31,21.20
2011,07,25,10,32,21.30
2011,07,25,10,33,21.30
2011,07,25,10,34,21.40
2011,07,25,10,35,21.40
2011,07,25,10,36,21.50
2011,07,25,10,37,21.60
2011,07,25,10,38,21.60
2011,07,25,10,39,21.60
2011,07,25,10,40,21.60
2011,07,25,10,41,21.80
2011,07,25,10,42,21.90
2011,07,25,10,43,22.10
2011,07,25,10,44,22.30
2011,07,25,10,45,22.40
2011,07,25,10,46,22.40
2011,07,25,10,47,22.40
2011,07,25,10,48,22.50
2011,07,25,10,49,22.60
2011,07,25,10,50,22.70
2011,07,25,10,51,22.80
2011,07,25,10,52,22.90
2011,07,25,10,53,22.90
2011,07,25,10,54,22.90
2011,07,25,10,55,22.90
2011,07,25,10,56,22.90
2011,07,25,10,57,22.90
2011,07,25,10,58,22.90
2011,07,25,10,59,22.90
2011,07,25,11,00,22.80
2011,07,25,11,01,22.70
2011,07,25,11,02,22.60
2011,07,25,11,03,22.50
2011,07,25,11,04,22.40
2011,07,25,11,05,22.40
2011,07,25,11,06,22.30
2011,07,25,11,07,22.30
2011,07,25,11,08,22.30
2011,07,25,11,09,22.30
2011,07,25,11,10,22.30
2011,07,25,11,11,22.30
2011,07,25,11,12,22.30
2011,07,25,11,13,22.30
2011,07,25,11,14,22.30
2011,07,25,11,15,22.30
2011,07,25,11,16,22.30
2011,07,25,11,17,22.30
2011,07,25,11,18,22.40
2011,07,25,11,19,22.30
2011,07,25,11,20,22.30
2011,07,25,11,21,22.30
2011,07,25,11,22,22.30
2011,07,25,11,23,22.20
2011,07,25,11,24,22.10
2011,07,25,11,25,22.00
2011,07,25,11,26,22.00
2011,07,25,11,27,21.90
2011,07,25,11,28,21.90
2011,07,25,11,29,21.90
2011,07,25,11,30,21.90
2011,07,25,11,31,21.90
2011,07,25,11,32,21.90
2011,07,25,11,33,22.00
2011,07,25,11,34,22.10
2011,07,25,11,35,22.00
2011,07,25,11,36,21.90
2011,07,25,11,37,21.90
2011,07,25,11,38,21.80
2011,07,25,11,39,21.80
2011,07,25,11,40,21.80
2011,07,25,11,41,21.80
2011,07,25,11,42,21.80
2011,07,25,11,43,21.80
2011,07,25,11,44,21.90
2011,07,25,11,45,22.00
2011,07,25,11,46,22.20
2011,07,25,11,47,22.20
2011,07,25,11,48,22.30
2011,07,25,11,49,22.30
2011,07,25,11,50,22.20
2011,07,25,11,51,22.20
2011,07,25,11,52,22.10
2011,07,25,11,53,22.00
2011,07,25,11,54,21.90
2011,07,25,11,55,21.80
2011,07,25,11,56,21.80
2011,07,25,11,57,21.80
2011,07,25,11,58,21.80
2011,07,25,11,59,21.90
2011,07,25,12,00,21.90
2011,07,25,12,01,22.00
2011,07,25,12,02,21.90
2011,07,25,12,03,21.80
2011,07,25,12,04,21.70
2011,07,25,12,05,21.60
2011,07,25,12,06,21.60
2011,07,25,12,07,21.60
2011,07,25,12,08,21.70
2011,07,25,12,09,21.70
2011,07,25,12,10,21.80
2011,07,25,12,11,21.80
2011,07,25,12,12,21.80
2011,07,25,12,13,21.80
2011,07,25,12,14,21.80
2011,07,25,12,15,21.90
2011,07,25,12,16,22.00
2011,07,25,12,17,22.10
2011,07,25,12,18,22.10
2011,07,25,12,19,22.10
2011,07,25,12,20,22.10
2011,07,25,12,21,22.10
2011,07,25,12,22,22.20
2011,07,25,12,23,22.20
2011,07,25,12,24,22.20
2011,07,25,12,25,22.20
2011,07,25,12,26,22.20
2011,07,25,12,27,22.20
2011,07,25,12,28,22.00
2011,07,25,12,29,21.90
2011,07,25,12,30,21.80
2011,07,25,12,31,21.80
2011,07,25,12,32,21.80
2011,07,25,12,33,21.80
2011,07,25,12,34,21.80
2011,07,25,12,35,21.70
2011,07,25,12,36,21.70
2011,07,25,12,37,21.70
2011,07,25,12,38,21.60
2011,07,25,12,39,21.60
2011,07,25,12,40,21.60
2011,07,25,12,41,21.60
2011,07,25,12,42,21.60
2011,07,25,12,43,21.70
2011,07,25,12,44,21.70
2011,07,25,12,45,21.70
2011,07,25,12,46,21.70
2011,07,25,12,47,21.80
2011,07,25,12,48,21.80
2011,07,25,12,49,21.80
2011,07,25,12,50,21.80
2011,07,25,12,51,21.80
2011,07,25,12,52,21.70
2011,07,25,12,53,21.70
2011,07,25,12,54,21.70
2011,07,25,12,55,21.70
2011,07,25,12,56,21.70
2011,07,25,12,57,21.70
2011,07,25,12,58,21.70
2011,07,25,12,59,21.70
2011,07,25,13,00,21.80
2011,07,25,13,01,21.80
2011,07,25,13,02,21.80
2011,07,25,13,03,21.90
2011,07,25,13,04,22.00
2011,07,25,13,05,22.10
2011,07,25,13,06,22.10
2011,07,25,13,07,22.10
2011,07,25,13,08,22.20
2011,07,25,13,09,22.20
2011,07,25,13,10,22.20
2011,07,25,13,11,22.10
2011,07,25,13,12,22.10
2011,07,25,13,13,21.90
2011,07,25,13,14,21.80
2011,07,25,13,15,21.70
2011,07,25,13,16,21.70
2011,07,25,13,17,21.70
2011,07,25,13,18,21.70
2011,07,25,13,19,21.70
2011,07,25,13,20,21.60
2011,07,25,13,21,21.60
2011,07,25,13,22,21.60
2011,07,25,13,23,21.60
2011,07,25,13,24,21.60
2011,07,25,13,25,21.60
2011,07,25,13,26,21.60
2011,07,25,13,27,21.60
2011,07,25,13,28,21.70
2011,07,25,13,29,21.70
2011,07,25,13,30,21.70
2011,07,25,13,31,21.60
2011,07,25,13,32,21.50
2011,07,25,13,33,21.50
2011,07,25,13,34,21.60
2011,07,25,13,35,21.60
2011,07,25,13,36,21.50
2011,07,25,13,37,21.40
2011,07,25,13,38,21.40
2011,07,25,13,39,21.50
2011,07,25,13,40,21.50
2011,07,25,13,41,21.60
2011,07,25,13,42,21.50
2011,07,25,13,43,21.40
2011,07,25,13,44,21.40
2011,07,25,13,45,21.40
2011,07,25,13,46,21.40
2011,07,25,13,47,21.30
2011,07,25,13,48,21.30
2011,07,25,13,49,21.30
2011,07,25,13,50,21.30
2011,07,25,13,51,21.30
2011,07,25,13,52,21.30
2011,07,25,13,53,21.20
2011,07,25,13,54,21.20
2011,07,25,13,55,21.20
2011,07,25,13,56,21.20
2011,07,25,13,57,21.30
2011,07,25,13,58,21.20
2011,07,25,13,59,21.10
2011,07,25,14,00,21.00
2011,07,25,14,01,21.00
2011,07,25,14,02,21.00
2011,07,25,14,03,21.00
2011,07,25,14,04,21.00
2011,07,25,14,05,21.10
2011,07,25,14,06,21.10
2011,07,25,14,07,21.20
2011,07,25,14,08,21.20
2011,07,25,14,09,21.20
2011,07,25,14,10,21.30
2011,07,25,14,11,21.50
2011,07,25,14,12,21.60
2011,07,25,14,13,21.60
2011,07,25,14,14,21.70
2011,07,25,14,15,21.70
2011,07,25,14,16,21.70
2011,07,25,14,17,21.70
2011,07,25,14,18,21.80
2011,07,25,14,19,21.90
2011,07,25,14,20,22.00
2011,07,25,14,21,22.00
2011,07,25,14,22,21.90
2011,07,25,14,23,21.90
2011,07,25,14,24,21.80
2011,07,25,14,25,21.70
2011,07,25,14,26,21.70
2011,07,25,14,27,21.70
2011,07,25,14,28,21.70
2011,07,25,14,29,21.70
2011,07,25,14,30,21.70
2011,07,25,14,31,21.60
2011,07,25,14,32,21.50
2011,07,25,14,33,21.40
2011,07,25,14,34,21.30
2011,07,25,14,35,21.20
2011,07,25,14,36,21.10
2011,07,25,14,37,21.00
2011,07,25,14,38,20.90
2011,07,25,14,39,20.80
2011,07,25,14,40,20.80
2011,07,25,14,41,20.80
2011,07,25,14,42,20.80
2011,07,25,14,43,20.80
2011,07,25,14,44,20.90
2011,07,25,14,45,21.00
2011,07,25,14,46,21.10
2011,07,25,14,47,21.10
2011,07,25,14,48,21.20
2011,07,25,14,49,21.20
2011,07,25,14,50,21.30
2011,07,25,14,51,21.30
2011,07,25,14,52,21.30
2011,07,25,14,53,21.40
2011,07,25,14,54,21.50
2011,07,25,14,55,21.60
2011,07,25,14,56,21.50
2011,07,25,14,57,21.40
2011,07,25,14,58,21.40
2011,07,25,14,59,21.50
2011,07,25,15,00,21.50
2011,07,25,15,01,21.60
2011,07,25,15,02,21.60
2011,07,25,15,03,21.50
2011,07,25,15,04,21.60
2011,07,25,15,05,21.50
2011,07,25,15,06,21.50
2011,07,25,15,07,21.40
2011,07,25,15,08,21.40
2011,07,25,15,09,21.40
2011,07,25,15,10,21.40
2011,07,25,15,11,21.40
2011,07,25,15,12,21.40
2011,07,25,15,13,21.40
2011,07,25,15,14,21.50
2011,07,25,15,15,21.50
2011,07,25,15,16,21.50
2011,07,25,15,17,21.50
2011,07,25,15,18,21.50
2011,07,25,15,19,21.50
2011,07,25,15,20,21.50
2011,07,25,15,21,21.50
2011,07,25,15,22,21.50
2011,07,25,15,23,21.60
2011,07,25,15,24,21.60
2011,07,25,15,25,21.60
2011,07,25,15,26,21.60
2011,07,25,15,27,21.70
2011,07,25,15,28,21.80
2011,07,25,15,29,21.90
2011,07,25,15,30,22.00
2011,07,25,15,31,22.00
2011,07,25,15,32,21.90
2011,07,25,15,33,21.90
2011,07,25,15,34,21.90
2011,07,25,15,35,21.90
2011,07,25,15,36,21.80
2011,07,25,15,37,21.70
2011,07,25,15,38,21.50
2011,07,25,15,39,21.40
2011,07,25,15,40,21.30
2011,07,25,15,41,21.20
2011,07,25,15,42,21.20
2011,07,25,15,43,21.10
2011,07,25,15,44,21.10
2011,07,25,15,45,21.10
2011,07,25,15,46,21.00
2011,07,25,15,47,21.00
2011,07,25,15,48,21.00
2011,07,25,15,49,20.90
2011,07,25,15,50,20.90
2011,07,25,15,51,20.90
2011,07,25,15,52,20.80
2011,07,25,15,53,20.80
2011,07,25,15,54,20.70
2011,07,25,15,55,20.70
2011,07,25,15,56,20.70
2011,07,25,15,57,20.60
2011,07,25,15,58,20.60
2011,07,25,15,59,20.60
2011,07,25,16,00,20.50
2011,07,25,16,01,20.50
2011,07,25,16,02,20.60
2011,07,25,16,03,20.60
2011,07,25,16,04,20.50
2011,07,25,16,05,20.50
2011,07,25,16,06,20.50
2011,07,25,16,07,20.50
2011,07,25,16,08,20.50
2011,07,25,16,09,20.40
2011,07,25,16,10,20.40
2011,07,25,16,11,20.40
2011,07,25,16,12,20.40
2011,07,25,16,13,20.40
2011,07,25,16,14,20.40
2011,07,25,16,15,20.50
2011,07,25,16,16,20.50
2011,07,25,16,17,20.50
2011,07,25,16,18,20.50
2011,07,25,16,19,20.50
2011,07,25,16,20,20.50
2011,07,25,16,21,20.50
2011,07,25,16,22,20.50
2011,07,25,16,23,20.50
2011,07,25,16,24,20.50
2011,07,25,16,25,20.50
2011,07,25,16,26,20.50
2011,07,25,16,27,20.50
2011,07,25,16,28,20.60
2011,07,25,16,29,20.70
2011,07,25,16,30,20.80
2011,07,25,16,31,20.90
2011,07,25,16,32,20.90
2011,07,25,16,33,20.90
2011,07,25,16,34,20.90
2011,07,25,16,35,20.90
2011,07,25,16,36,20.90
2011,07,25,16,37,20.90
2011,07,25,16,38,20.90
2011,07,25,16,39,20.90
2011,07,25,16,40,20.90
2011,07,25,16,41,20.90
2011,07,25,16,42,20.90
2011,07,25,16,43,20.90
2011,07,25,16,44,21.00
2011,07,25,16,45,21.10
2011,07,25,16,46,21.10
2011,07,25,16,47,21.20
2011,07,25,16,48,21.30
2011,07,25,16,49,21.40
2011,07,25,16,50,21.50
2011,07,25,16,51,21.50
2011,07,25,16,52,21.60
2011,07,25,16,53,21.60
2011,07,25,16,54,21.50
2011,07,25,16,55,21.50
2011,07,25,16,56,21.40
2011,07,25,16,57,21.30
2011,07,25,16,58,21.30
2011,07,25,16,59,21.30
2011,07,25,17,00,21.30
2011,07,25,17,01,21.30
2011,07,25,17,02,21.30
2011,07,25,17,03,21.20
2011,07,25,17,04,21.20
2011,07,25,17,05,21.20
2011,07,25,17,06,21.20
2011,07,25,17,07,21.20
2011,07,25,17,08,21.10
2011,07,25,17,09,21.10
2011,07,25,17,10,21.10
2011,07,25,17,11,21.00
2011,07,25,17,12,20.90
2011,07,25,17,13,20.90
2011,07,25,17,14,20.80
2011,07,25,17,15,20.80
2011,07,25,17,16,20.90
2011,07,25,17,17,20.90
2011,07,25,17,18,20.90
2011,07,25,17,19,20.90
2011,07,25,17,20,20.80
2011,07,25,17,21,20.80